N990XB KTTS-KXTA

Flight info

Callsign N990XB
Flight time N/A
Altitude 45000
Route DCT
Aircraft XB1/L-SDE3GHIJ1RWYZ/L

Departure

Time 2026-04-18 06:39
Airport Space Florida Launch and Landing Facility (KTTS)

Arrival

Time N/A
Airport Homey (Area 51) Airport (KXTA)
Time Latitude Longitude Altitude Speed Heading
2026-04-18 06:38 28.68084 -80.75762 17003 ft 224 kts 323°
2026-04-18 06:39 28.69278 -80.76766 18739 ft 192 kts 310°
2026-04-18 06:39 28.70000 -80.77886 20223 ft 172 kts 290°
2026-04-18 06:39 28.70302 -80.79280 20710 ft 204 kts 271°
2026-04-18 06:39 28.70132 -80.81056 20929 ft 241 kts 262°
2026-04-18 06:40 28.70053 -80.82921 22028 ft 240 kts 278°
2026-04-18 06:40 28.70280 -80.85227 20954 ft 341 kts 282°
2026-04-18 06:40 28.71364 -80.87081 22897 ft 276 kts 349°
2026-04-18 06:40 28.73378 -80.86825 23060 ft 301 kts
2026-04-18 06:41 28.75124 -80.86924 24998 ft 210 kts 328°
2026-04-18 06:41 28.76180 -80.87688 26578 ft 163 kts 313°
2026-04-18 06:41 28.77158 -80.88625 26176 ft 212 kts 321°
2026-04-18 06:41 28.78427 -80.89530 26031 ft 206 kts 334°
2026-04-18 06:42 28.79756 -80.90010 26384 ft 206 kts 344°
2026-04-18 06:42 28.81292 -80.90264 26213 ft 239 kts 348°
2026-04-18 06:42 28.83002 -80.90447 26458 ft 246 kts 349°
2026-04-18 06:42 28.84630 -80.90624 27369 ft 222 kts 346°
2026-04-18 06:43 28.86096 -80.90867 28104 ft 209 kts 340°
2026-04-18 06:43 28.87526 -80.91280 27993 ft 227 kts 334°
2026-04-18 06:43 28.89098 -80.92028 27356 ft 261 kts 327°
2026-04-18 06:43 28.90630 -80.93144 27470 ft 260 kts 315°
2026-04-18 06:44 28.91791 -80.94577 28351 ft 231 kts 300°
2026-04-18 06:44 28.92604 -80.96061 29100 ft 214 kts 300°
2026-04-18 06:44 28.93369 -80.97537 29179 ft 222 kts 300°
2026-04-18 06:44 28.94219 -80.99113 28846 ft 243 kts 302°
2026-04-18 06:45 28.95201 -81.00734 28869 ft 249 kts 308°
2026-04-18 06:45 28.95956 -81.01691 29185 ft 240 kts 316°
2026-04-18 06:45 28.97620 -81.03196 29956 ft 220 kts 323°
2026-04-18 06:45 28.98501 -81.03784 30007 ft 225 kts 329°
2026-04-18 06:46 29.00576 -81.04634 29490 ft 255 kts 340°
2026-04-18 06:46 29.02422 -81.05078 29002 ft 293 kts 343°
2026-04-18 06:46 29.04535 -81.05541 28791 ft 307 kts 341°
2026-04-18 06:46 29.06547 -81.06014 29879 ft 302 kts 344°
2026-04-18 06:47 29.07996 -81.06276 29722 ft 335 kts 346°
2026-04-18 06:47 29.10536 -81.06652 28573 ft 401 kts 342°
2026-04-18 06:47 29.13317 -81.07870 27505 ft 450 kts 326°
2026-04-18 06:47 29.15775 -81.09829 29524 ft 393 kts 321°
2026-04-18 06:48 29.17622 -81.11488 33650 ft 285 kts 311°
2026-04-18 06:48 29.18768 -81.13032 36413 ft 237 kts 301°
2026-04-18 06:48 29.19701 -81.14634 36457 ft 261 kts 296°
2026-04-18 06:48 29.20349 -81.16877 33294 ft 344 kts 272°
2026-04-18 06:49 29.20373 -81.19406 33707 ft 268 kts 280°
2026-04-18 06:49 29.20655 -81.21303 35043 ft 232 kts 286°
2026-04-18 06:49 29.21200 -81.23123 34529 ft 263 kts 297°
2026-04-18 06:49 29.22215 -81.25171 32733 ft 330 kts 301°
2026-04-18 06:50 29.23643 -81.27432 31994 ft 359 kts 307°
2026-04-18 06:50 29.25064 -81.29413 33728 ft 277 kts 309°
2026-04-18 06:50 29.26226 -81.30736 35918 ft 208 kts 321°
2026-04-18 06:50 29.27419 -81.31589 36224 ft 207 kts 324°
2026-04-18 06:51 29.28780 -81.32546 34611 ft 262 kts 318°
2026-04-18 06:51 29.30438 -81.34000 32534 ft 328 kts 320°
2026-04-18 06:51 29.32561 -81.35629 28702 ft 440 kts 332°
2026-04-18 06:51 29.35642 -81.37210 27702 ft 482 kts 332°
2026-04-18 06:52 29.38339 -81.38824 31420 ft 406 kts 323°
2026-04-18 06:52 29.40498 -81.40572 34645 ft 363 kts 318°
2026-04-18 06:52 29.42385 -81.42379 36280 ft 355 kts 314°
2026-04-18 06:52 29.44187 -81.44447 36052 ft 384 kts 309°
2026-04-18 06:53 29.46071 -81.46932 34464 ft 444 kts 310°
2026-04-18 06:53 29.48400 -81.49682 32431 ft 514 kts 315°
2026-04-18 06:53 29.51144 -81.52574 30944 ft 558 kts 316°
2026-04-18 06:53 29.54050 -81.55624 30620 ft 564 kts 314°
2026-04-18 06:54 29.56785 -81.58754 31541 ft 551 kts 310°
2026-04-18 06:54 29.59256 -81.62064 32459 ft 541 kts 305°
2026-04-18 06:54 29.61408 -81.65605 32841 ft 541 kts 300°
2026-04-18 06:54 29.63202 -81.69456 32652 ft 551 kts 293°
2026-04-18 06:55 29.64505 -81.73631 32745 ft 554 kts 286°
2026-04-18 06:55 29.65430 -81.77893 33653 ft 542 kts 287°
2026-04-18 06:55 29.66629 -81.82022 33889 ft 550 kts 290°
2026-04-18 06:55 29.67595 -81.86261 33635 ft 568 kts 273°
2026-04-18 06:56 29.67228 -81.90909 32762 ft 599 kts 263°
2026-04-18 06:56 29.66715 -81.95608 34085 ft 575 kts 269°
2026-04-18 06:56 29.66389 -81.99976 36933 ft 528 kts 261°
2026-04-18 06:56 29.65344 -82.04038 38084 ft 541 kts 246°
2026-04-18 06:57 29.63631 -82.07049 35869 ft 589 kts 233°
2026-04-18 06:57 29.58667 -82.13652 39364 ft 320 kts 240°
2026-04-18 06:57 29.57642 -82.14957 46011 ft 158 kts 248°
2026-04-18 06:58 29.56921 -82.15943 47203 ft 173 kts 248°
2026-04-18 06:58 29.56147 -82.17203 42161 ft 219 kts 248°
2026-04-18 06:58 29.54252 -82.18881 34423 ft 484 kts 214°
2026-04-18 06:58 29.51314 -82.20299 35084 ft 410 kts 202°
2026-04-18 06:59 29.48561 -82.21055 36549 ft 416 kts 202°
2026-04-18 06:59 29.45649 -82.21892 35936 ft 448 kts 209°
2026-04-18 06:59 29.42697 -82.23580 32371 ft 509 kts 222°
2026-04-18 06:59 29.40001 -82.26572 24500 ft 604 kts 227°
2026-04-18 07:00 29.37090 -82.30065 11991 ft 688 kts 226°
2026-04-18 07:00 29.34292 -82.33392 13458 ft 95 kts
2026-04-18 07:00 29.35890 -82.32026 16950 ft 391 kts 65°
2026-04-18 07:00 29.36749 -82.29187 18194 ft 343 kts 72°
2026-04-18 07:01 29.37408 -82.26929 21603 ft 263 kts 54°
2026-04-18 07:01 29.38562 -82.24924 22275 ft 342 kts 50°
2026-04-18 07:01 29.40165 -82.22380 21168 ft 443 kts 51°
2026-04-18 07:01 29.42154 -82.19388 21534 ft 483 kts 50°
2026-04-18 07:02 29.44044 -82.16417 24714 ft 426 kts 54°
2026-04-18 07:02 29.45376 -82.13699 28803 ft 359 kts 57°
2026-04-18 07:02 29.46499 -82.11171 31241 ft 365 kts 57°
2026-04-18 07:02 29.47706 -82.08354 30211 ft 434 kts 58°
2026-04-18 07:03 29.49270 -82.04874 27495 ft 537 kts 62°
2026-04-18 07:03 29.50928 -82.00836 27590 ft 559 kts 64°
2026-04-18 07:03 29.51862 -81.97853 30093 ft 507 kts 68°
2026-04-18 07:04 29.52555 -81.95704 32601 ft 451 kts 57°
2026-04-18 07:04 29.53892 -81.92727 36016 ft 400 kts 57°
2026-04-18 07:04 29.55164 -81.89972 37380 ft 389 kts 45°
2026-04-18 07:05 29.56592 -81.87296 34506 ft 360 kts 42°